Showing default

ZHUHAI-1 OVS-02, 43440

Orbit data source: Space-Track

ZHUHAI-1 OVS-02, 43440 is a payload satellite owned by Zhuhai Orbita (CN) in SSO that was launched on Thu, 26 Apr 2018 UTC via a CHANG ZHENG 11 launch vehicle from the Jiuquan Satellite Launch Center, China (JSC). Payload-class satellites include a variety of spacecraft equipped with specific instruments for various scientific and technological missions. These include communications satellites like Starlink; space stations such as the ISS; scientific satellites like the Hubble; Earth observation satellites from companies like Planet Labs, Umbra, and HawkEye 360; GPS; miniature CubeSats for education and research; and military/defense satellites.

Loading next visibility...
Identifier
43440, 2018-040B
Orbit
SSO
Last TLE update
10 hours ago
Origin
Manufacturer
Harbin
Mission
Operational Commercial Imaging
Bus & Motor
OVS-1, Unknown motor
Mass
95 kg wet, 95 kg dry
Launch date (UTC)
2018-04-26 (7 years ago)
Launch vehicle
CHANG ZHENG 11
Launch site
Jiuquan Satellite Launch Center, China (JSC)
Object type
Payload
Rocket body
Debris
Shape & HBR
Box, 1 m
Radar Cross Section
0.375 m², Medium (>0.1 m² and < 1m²)

Expand to show TLE details & history

TLE from 10 hours ago
0 ZHUHAI-1 OVS-02
1 43440U 18040B   25190.19721148  .00004449  00000-0  21180-3 0  9994
2 43440  97.0708 223.3979 0005282  52.9314 307.2404 15.19605174400535
Epoch: 2025-07-09T04:43Z
TLE epoch observation values (Epoch: 2025-07-09T04:43:59.071Z)
Latitude
-0.00006°
Longitude
-134.97952°
Altitude
507.932 km
Speed
7.611 km/s
True Right ascension
14h 53m 35s
True Declination
0° 00' 00"
Sunlit
Object was in full shadow at epoch
Visualization orbit readout
Latitude
11.55413°
Longitude
46.86448°
Altitude
510.999 km
Speed
7.608 km/s
Apparent Right ascension
02h 42m 37s
Apparent Declination
-55° 25' 59"
Sunlit
Object is in daylight
Visualization observer readout
Local Sidereal Time
03:07:55
Azimuth
183.599° SSW
Elevation
-5.501°
Doppler factor
1
Orbital elements
Apogee altitude
507.62 km
Perigee altitude
500.35 km
Semi-major axis
6,882.122 km
Eccentricity
0.00053
Inclination
97.0708°
RAAN
223.3979°
Arg. of periapsis
52.9314°
True anomaly
Unknown
Mean anomaly
307.2404°
Eccentric anomaly
Unknown
Mean motion
3.80154 °/min
Orbital period
94.7 mins
BSTAR
0.0002118
Loading maneuver chart data...
Loading SW <> Apogee altitude chart data...
Loading historical data...
Loading historical data...
Loading historical data...
Loading historical data...
Loading historical data...
Loading historical data...
Loading historical data...

ZHUHAI-1 OVS-02 Visibility forecast

Observer location: undefined°, undefined°

Span
Click to sort rows by Start time (UTC) header in descending order
Start Az.
Max El. time (UTC)
Max El. Az.
Max El.
End time (UTC)
End Az.
4 mins2025-07-10 03:00:11.451Z226.961° WSW2025-07-10 03:02:11.451Z276.78° WNW22.462°2025-07-10 03:04:11.451Z315.08° NNW
5 mins2025-07-10 14:30:11.451Z46.409° ENE2025-07-10 14:32:11.451Z93.576° ESE26.075°2025-07-10 14:35:11.451Z155.695° SSE
|